Weather History for Volk, WI

Change the Weather History Date:

Saturday, September 14, 2013

  Actual Average Record
Temperature  
Mean Temperature 54 °F -  
Max Temperature 72 °F 70 °F 75 °F (2004)
Min Temperature 35 °F 52 °F 30 °F (2007)
Degree Days  
Heating Degree Days 12    
Growing Degree Days 4 (Base 50)    
Moisture  
Dew Point 41 °F    
Average Humidity 77    
Maximum Humidity 100    
Minimum Humidity 38    
Precipitation  
Precipitation 0.00 in - - ()
Sea Level Pressure  
Sea Level Pressure 30.10 in    
Wind  
Wind Speed 4 mph (SE)    
Max Wind Speed 13 mph    
Max Gust Speed 18 mph    
Visibility 8 miles    
Events Rain    
Averages and records for this station are not official NWS values.
T = Trace of Precipitation, MM = Missing Value Source: NWS Daily Summary

Daily Weather History Graph

Daily Weather History Graph

Search for Another Location

Airport:

Trip Planner

Search our weather history database for the weather conditions in past years. The results will help you decide how hot, cold, wet, or windy it might be!

Date:

Astronomy

Sep. 14, 2013 Rise Set
Actual Time 6:39 AM CDT 7:12 PM CDT
Civil Twilight 6:10 AM CDT 7:41 PM CDT
Nautical Twilight 5:36 AM CDT 8:15 PM CDT
Astronomical Twilight 5:00 AM CDT 8:51 PM CDT
Moon 4:01 PM CDT (9/14) 1:02 AM CDT (9/14)
Length of Visible Light 13h 31m
Length of Day
12h 33m
Waxing Gibbous, 72% of the Moon is Illuminated
Sep 14
Waxing Gibbous
Sep 19
Full
Sep 26
Last Quarter
Oct 4
New
Oct 11
First Quarter

Hourly Weather History & Observations

Time (CDT) Temp. Windchill Dew Point Humidity Pressure Visibility Wind Dir Wind Speed Gust Speed Precip Events Conditions
12:18 AM 37.4 °F - 37.4 °F 100% 30.14 in 9.0 mi East 2.3 mph - N/A   Clear
12:23 AM 37.4 °F - 37.4 °F 100% 30.14 in 10.0 mi Calm Calm - N/A   Clear
12:33 AM 39.2 °F - 37.4 °F 93% 30.14 in 9.0 mi ENE 1.2 mph - N/A   Clear
12:43 AM 35.6 °F 32.8 °F 35.6 °F 100% 30.14 in 3.0 mi East 3.5 mph - N/A   Clear
12:48 AM 35.6 °F 31.7 °F 33.8 °F 93% 30.14 in 2.5 mi East 4.6 mph - N/A   Clear
12:53 AM 35.6 °F 31.7 °F 35.6 °F 100% 30.14 in 5.0 mi East 4.6 mph - N/A   Clear
12:58 AM 35.8 °F - 35.2 °F 98% 30.16 in 6.0 mi East 2.3 mph - N/A   Clear
1:08 AM 37.4 °F 33.8 °F 37.4 °F 100% 30.14 in 8.0 mi ESE 4.6 mph - N/A   Clear
1:13 AM 35.6 °F 31.7 °F 33.8 °F 93% 30.14 in 10.0 mi SE 4.6 mph - N/A   Clear
1:23 AM 35.6 °F 30.7 °F 33.8 °F 93% 30.14 in 9.0 mi SE 5.8 mph - N/A   Clear
1:58 AM 37.8 °F - 36.1 °F 94% 30.16 in 8.0 mi ENE 2.3 mph - N/A   Clear
2:08 AM 35.6 °F 32.8 °F 33.8 °F 93% 30.14 in 10.0 mi East 3.5 mph - N/A   Clear
2:58 AM 35.1 °F 30.1 °F 34.7 °F 99% 30.15 in 10.0 mi SSE 5.8 mph - N/A   Clear
3:03 AM 35.6 °F - 33.8 °F 93% 30.14 in 8.0 mi Calm Calm - N/A   Clear
3:58 AM 35.2 °F 32.4 °F 34.2 °F 96% 30.15 in 9.0 mi ESE 3.5 mph - N/A   Clear
4:08 AM 37.4 °F 34.9 °F 35.6 °F 93% 30.13 in 8.0 mi Variable 3.5 mph - N/A   Clear
4:58 AM 40.6 °F - 37.8 °F 89% 30.16 in 10.0 mi ENE 2.3 mph - N/A   Clear
5:08 AM 39.2 °F - 37.4 °F 93% 30.14 in 8.0 mi ENE 2.3 mph - N/A   Clear
5:18 AM 39.2 °F - 35.6 °F 87% 30.14 in 10.0 mi East 2.3 mph - N/A   Clear
5:38 AM 37.4 °F - 35.6 °F 93% 30.14 in 9.0 mi Variable 1.2 mph - N/A   Clear
5:58 AM 40.3 °F - 37.6 °F 90% 30.17 in 10.0 mi Variable 2.3 mph - N/A   Clear
6:08 AM 41.0 °F 39.0 °F 37.4 °F 87% 30.15 in 9.0 mi ENE 3.5 mph - N/A   Clear
6:23 AM 39.2 °F 37.0 °F 37.4 °F 93% 30.14 in 10.0 mi ENE 3.5 mph - N/A   Clear
6:58 AM 39.4 °F - 37.6 °F 93% 30.16 in 8.0 mi NE 1.2 mph - N/A   Clear
7:58 AM 51.1 °F - 43.2 °F 74% 30.16 in 9.0 mi South 12.7 mph 18.4 mph N/A   Clear
8:58 AM 55.6 °F - 43.9 °F 65% 30.17 in 7.0 mi SSW 8.1 mph - N/A   Clear
9:58 AM 61.2 °F - 43.2 °F 52% 30.17 in 5.0 mi SSW 8.1 mph - N/A   Haze
10:58 AM 65.7 °F - 42.1 °F 42% 30.14 in 4.0 mi SW 11.5 mph - N/A   Haze
11:58 AM 68.5 °F - 42.3 °F 38% 30.12 in 3.0 mi SSW 8.1 mph - N/A   Haze
12:58 PM 69.4 °F - 42.8 °F 38% 30.10 in 5.0 mi SSW 10.4 mph - N/A   Haze
1:58 PM 71.4 °F - 44.6 °F 38% 30.07 in 7.0 mi South 8.1 mph - N/A   Clear
2:58 PM 72.7 °F - 45.5 °F 38% 30.05 in 8.0 mi South 9.2 mph - N/A   Clear
3:58 PM 71.4 °F - 45.1 °F 39% 30.03 in 7.0 mi Variable 6.9 mph - N/A   Clear
4:58 PM 71.8 °F - 45.3 °F 39% 30.01 in 9.0 mi South 8.1 mph - N/A   Clear
5:58 PM 68.9 °F - 45.0 °F 42% 30.02 in 7.0 mi South 9.2 mph - N/A   Clear
6:58 PM 66.9 °F - 45.9 °F 47% 30.02 in 10.0 mi South 4.6 mph - N/A   Partly Cloudy
7:58 PM 59.4 °F - 48.6 °F 67% 30.01 in 10.0 mi South 5.8 mph - N/A   Partly Cloudy
8:58 PM 61.3 °F - 47.5 °F 60% 29.98 in 10.0 mi SSE 3.5 mph - N/A   Clear
9:58 PM 59.9 °F - 48.6 °F 66% 30.00 in 10.0 mi SE 1.2 mph - N/A   Overcast
10:55 PM 60.8 °F - 48.2 °F 63% 29.99 in 10.0 mi SE 2.3 mph - N/A Rain Light Rain
10:58 PM 60.8 °F - 48.2 °F 63% 30.00 in 10.0 mi ESE 1.2 mph - N/A Rain Light Rain
11:26 PM 57.2 °F - 50.0 °F 77% 29.99 in 10.0 mi ENE 1.2 mph - N/A   Scattered Clouds
11:33 PM 57.2 °F - 53.6 °F 88% 29.99 in 10.0 mi Calm Calm - N/A Rain Light Rain
11:44 PM 57.2 °F - 51.8 °F 82% 30.00 in 10.0 mi Calm Calm - N/A   Mostly Cloudy
11:54 PM 57.2 °F - 51.8 °F 82% 30.00 in 10.0 mi Calm Calm - N/A Rain Light Rain
11:58 PM 56.3 °F - 52.7 °F 88% 30.01 in 10.0 mi SSW 2.3 mph - 0.00 in Rain Light Rain